Scottsbluff, NE

11:06 PM MST on December 17, 2017 (GMT -0700)
Heilig

Weather History for KBFF - January, 2006

Change the Weather History Date:

Friday, January 13, 2006

  Actual Average Record
Temperature  
Mean Temperature 34 °F 27 °F  
Max Temperature 52 °F 41 °F 66 °F (1902)
Min Temperature 15 °F 14 °F -29 °F (1905)
Degree Days  
Heating Degree Days 31 38  
Month to date heating degree days 360 499  
Since 1 July heating degree days 2884 3271  
Cooling Degree Days 0 0  
Month to date cooling degree days 0 0  
Year to date cooling degree days 0 0  
Moisture  
Dew Point 16 °F    
Average Humidity 53    
Maximum Humidity 81    
Minimum Humidity 24    
Precipitation  
Precipitation 0.00 in 0.01 in 0.09 in (1957)
Month to date precipitation 0.49 0.17  
Year to date precipitation 0.49 0.17  
Snow  
Snow 0.00 in 0.10 in 2.40 in (1957)
Month to date snowfall 5.9 2.3  
Since 1 July snowfall 10.0 18.3  
Snow Depth 0.00 in    
Sea Level Pressure  
Sea Level Pressure 30.19 in    
Wind  
Wind Speed 5 mph (NW)    
Max Wind Speed 20 mph    
Max Gust Speed 25 mph    
Visibility 10 miles    
Events      
T = Trace of Precipitation, MM = Missing Value Source: NWS Daily Summary

Daily Weather History Graph

Daily Weather History Graph

Search for Another Location

Airport or City:

Trip Planner

Search our weather history database for the weather conditions in past years. The results will help you decide how hot, cold, wet, or windy it might be!

Date:

Astronomy

Jan. 13, 2006 Rise Set
Actual Time 7:20 AM MST 4:46 PM MST
Civil Twilight 6:49 AM MST 5:17 PM MST
Nautical Twilight 6:15 AM MST 5:51 PM MST
Astronomical Twilight 5:41 AM MST 6:25 PM MST
Moon 3:56 PM MST (1/13) 7:18 AM MST (1/13)
Length of Visible Light 10h 27m
Length of Day
9h 25m
Full, 100% of the Moon is Illuminated
Jan 13
Full
Jan 14
Full
Jan 22
Last Quarter
Jan 29
New
Feb 4
First Quarter

Hourly Weather History & Observations

Time (MST) Temp. Windchill Dew Point Humidity Pressure Visibility Wind Dir Wind Speed Gust Speed Precip Events Conditions
12:54 AM 19.9 °F 8.6 °F 14.0 °F 78% 30.22 in 10.0 mi WNW 10.4 mph - N/A   Clear
1:54 AM 19.0 °F 9.0 °F 12.9 °F 77% 30.24 in 10.0 mi WNW 8.1 mph - N/A   Clear
2:54 AM 18.0 °F 9.8 °F 12.0 °F 78% 30.26 in 10.0 mi NNW 5.8 mph - N/A   Clear
3:54 AM 19.0 °F - 12.0 °F 74% 30.27 in 10.0 mi Calm Calm - N/A   Clear
4:54 AM 17.1 °F 10.0 °F 12.0 °F 81% 30.29 in 10.0 mi NNW 4.6 mph - N/A   Clear
5:54 AM 16.0 °F 7.4 °F 10.9 °F 81% 30.32 in 10.0 mi NNW 5.8 mph - N/A   Clear
6:54 AM 18.0 °F 12.7 °F 10.0 °F 71% 30.31 in 10.0 mi NNW 3.5 mph - N/A   Clear
7:54 AM 16.0 °F 8.8 °F 10.9 °F 81% 30.32 in 10.0 mi WNW 4.6 mph - N/A   Clear
8:54 AM 25.0 °F - 15.1 °F 66% 30.30 in 10.0 mi Calm Calm - N/A   Clear
9:54 AM 32.0 °F - 14.0 °F 48% 30.27 in 10.0 mi Calm Calm - N/A   Clear
10:54 AM 37.9 °F - 15.1 °F 39% 30.22 in 10.0 mi Calm Calm - N/A   Clear
11:54 AM 43.0 °F 40.3 °F 15.1 °F 32% 30.17 in 10.0 mi WNW 4.6 mph - N/A   Clear
12:54 PM 50.0 °F - 15.1 °F 25% 30.12 in 10.0 mi West 15.0 mph - N/A   Clear
1:54 PM 50.0 °F - 15.1 °F 25% 30.12 in 10.0 mi WNW 15.0 mph - N/A   Clear
2:54 PM 50.0 °F - 19.0 °F 29% 30.13 in 10.0 mi WNW 13.8 mph - N/A   Clear
3:54 PM 52.0 °F - 19.9 °F 28% 30.10 in 10.0 mi WNW 6.9 mph - N/A   Clear
4:54 PM 46.0 °F 41.9 °F 21.0 °F 37% 30.12 in 10.0 mi West 8.1 mph - N/A   Clear
5:54 PM 41.0 °F 38.0 °F 21.0 °F 45% 30.13 in 10.0 mi SW 4.6 mph - N/A   Clear
6:54 PM 42.1 °F 39.2 °F 21.9 °F 45% 30.13 in 10.0 mi NNW 4.6 mph - N/A   Clear
7:54 PM 36.0 °F - 21.9 °F 57% 30.16 in 10.0 mi Calm Calm - N/A   Clear
8:54 PM 37.0 °F - 21.9 °F 54% 30.13 in 10.0 mi Calm Calm - N/A   Clear
9:54 PM 27.0 °F 20.5 °F 21.0 °F 78% 30.12 in 10.0 mi East 5.8 mph - N/A   Clear
10:54 PM 30.0 °F 26.5 °F 21.9 °F 72% 30.07 in 10.0 mi NE 3.5 mph - N/A   Clear
11:54 PM 28.0 °F - 21.0 °F 75% 30.06 in 10.0 mi Calm Calm - N/A   Clear